• In Hungary
  • List of Countries
  • For 7 days
  • Water Temperature
  • Satellite Maps
  • Weather Map
  • News
  • Weather Widgets
  • user-avatar
    Login

    Hourly Weather Puerto Momotombo

    Today, 23 February, Friday

    Time Temperature Precipitation Wind Pressure Humidity
    00:00 +25°C° 0 mm 5 mps 736 mmHg 67%
    01:00 +25°C° 0 mm 5 mps 735 mmHg 68%
    02:00 +23°C° 0 mm 5 mps 735 mmHg 69%
    03:00 +23°C° 0 mm 4 mps 735 mmHg 70%
    04:00 +23°C° 0 mm 4 mps 735 mmHg 71%
    05:00 +22°C° 0 mm 4 mps 735 mmHg 72%
    06:00 +22°C° 0 mm 4 mps 736 mmHg 73%
    07:00 +25°C° 0 mm 5 mps 736 mmHg 63%
    08:00 +28°C° 0 mm 5 mps 736 mmHg 53%
    09:00 +30°C° 0 mm 6 mps 737 mmHg 43%
    10:00 +33°C° 0 mm 6 mps 736 mmHg 38%
    11:00 +34°C° 0 mm 6 mps 736 mmHg 34%
    12:00 +36°C° 0 mm 6 mps 736 mmHg 29%
    13:00 +36°C° 0 mm 6 mps 735 mmHg 29%
    14:00 +36°C° 0 mm 6 mps 734 mmHg 29%
    15:00 +36°C° 0 mm 6 mps 733 mmHg 30%
    16:00 +34°C° 0 mm 6 mps 733 mmHg 35%
    17:00 +32°C° 0 mm 6 mps 734 mmHg 41%
    18:00 +29°C° 0 mm 6 mps 734 mmHg 46%
    19:00 +28°C° 0 mm 5 mps 734 mmHg 52%
    20:00 +27°C° 0 mm 5 mps 735 mmHg 57%
    21:00 +26°C° 0 mm 4 mps 735 mmHg 62%
    22:00 +25°C° 0 mm 4 mps 735 mmHg 64%
    23:00 +25°C° 0 mm 4 mps 735 mmHg 66%

    Tomorrow, 24 February, Saturday

    Time Temperature Precipitation Wind Pressure Humidity
    00:00 +23°C° 0 mm 4 mps 735 mmHg 68%
    01:00 +23°C° 0 mm 4 mps 735 mmHg 69%
    02:00 +23°C° 0 mm 4 mps 734 mmHg 70%
    03:00 +22°C° 0 mm 4 mps 734 mmHg 71%
    04:00 +22°C° 0 mm 3 mps 734 mmHg 72%
    05:00 +22°C° 0 mm 3 mps 734 mmHg 73%
    06:00 +22°C° 0 mm 3 mps 735 mmHg 73%
    07:00 +25°C° 0 mm 4 mps 735 mmHg 64%
    08:00 +27°C° 0 mm 5 mps 736 mmHg 55%
    09:00 +30°C° 0 mm 5 mps 736 mmHg 46%
    10:00 +32°C° 0 mm 5 mps 736 mmHg 41%
    11:00 +34°C° 0 mm 5 mps 735 mmHg 36%
    12:00 +36°C° 0 mm 5 mps 735 mmHg 31%
    13:00 +36°C° 0 mm 5 mps 734 mmHg 31%
    14:00 +36°C° 0 mm 5 mps 733 mmHg 31%
    15:00 +36°C° 0 mm 5 mps 733 mmHg 30%
    16:00 +34°C° 0 mm 5 mps 733 mmHg 35%
    17:00 +32°C° 0 mm 4 mps 733 mmHg 40%
    18:00 +30°C° 0 mm 4 mps 733 mmHg 45%
    19:00 +28°C° 0 mm 4 mps 734 mmHg 50%
    20:00 +27°C° 0 mm 4 mps 734 mmHg 54%
    21:00 +26°C° 0 mm 4 mps 735 mmHg 58%
    22:00 +26°C° 0 mm 4 mps 735 mmHg 61%
    23:00 +25°C° 0 mm 4 mps 735 mmHg 64%

    Day after tomorrow, 25 February, Sunday

    Time Temperature Precipitation Wind Pressure Humidity
    00:00 +23°C° 0 mm 4 mps 735 mmHg 67%
    01:00 +24°C° 0 mm 3 mps 735 mmHg 69%
    02:00 +22°C° 0 mm 3 mps 734 mmHg 71%
    03:00 +22°C° 0 mm 3 mps 734 mmHg 73%
    04:00 +22°C° 0 mm 3 mps 734 mmHg 75%
    05:00 +21°C° 0 mm 3 mps 734 mmHg 76%
    06:00 +21°C° 0 mm 3 mps 735 mmHg 77%
    07:00 +24°C° 0 mm 3 mps 735 mmHg 67%
    08:00 +27°C° 0 mm 3 mps 736 mmHg 56%
    09:00 +29°C° 0 mm 4 mps 736 mmHg 45%
    10:00 +32°C° 0 mm 4 mps 736 mmHg 40%
    11:00 +34°C° 0 mm 4 mps 735 mmHg 35%
    12:00 +36°C° 0 mm 4 mps 735 mmHg 29%
    13:00 +36°C° 0 mm 4 mps 734 mmHg 29%
    14:00 +36°C° 0 mm 4 mps 733 mmHg 30%
    15:00 +36°C° 0 mm 5 mps 732 mmHg 30%
    16:00 +34°C° 0 mm 4 mps 733 mmHg 36%
    17:00 +32°C° 0 mm 4 mps 733 mmHg 42%
    18:00 +29°C° 0 mm 4 mps 734 mmHg 48%
    19:00 +28°C° 0 mm 4 mps 734 mmHg 53%
    20:00 +27°C° 0 mm 3 mps 735 mmHg 57%
    21:00 +26°C° 0 mm 3 mps 735 mmHg 62%
    22:00 +25°C° 0 mm 3 mps 735 mmHg 64%
    23:00 +25°C° 0 mm 3 mps 735 mmHg 66%

    26 February, Monday

    Time Temperature Precipitation Wind Pressure Humidity
    00:00 +24°C° 0 mm 3 mps 735 mmHg 69%
    01:00 +24°C° 0 mm 3 mps 735 mmHg 71%
    02:00 +22°C° 0 mm 3 mps 735 mmHg 72%
    03:00 +22°C° 0 mm 3 mps 735 mmHg 74%
    04:00 +22°C° 0 mm 3 mps 735 mmHg 75%
    05:00 +21°C° 0 mm 3 mps 735 mmHg 76%
    06:00 +21°C° 0 mm 3 mps 735 mmHg 77%
    07:00 +25°C° 0 mm 3 mps 736 mmHg 66%
    08:00 +27°C° 0 mm 3 mps 736 mmHg 55%
    09:00 +29°C° 0 mm 4 mps 737 mmHg 44%
    10:00 +32°C° 0 mm 4 mps 736 mmHg 38%
    11:00 +34°C° 0 mm 4 mps 736 mmHg 31%
    12:00 +36°C° 0 mm 4 mps 735 mmHg 25%
    13:00 +36°C° 0 mm 4 mps 734 mmHg 25%
    14:00 +37°C° 0 mm 4 mps 734 mmHg 25%
    15:00 +37°C° 0 mm 5 mps 733 mmHg 25%
    16:00 +35°C° 0 mm 5 mps 733 mmHg 32%
    17:00 +33°C° 0 mm 4 mps 733 mmHg 39%
    18:00 +30°C° 0 mm 4 mps 734 mmHg 45%
    19:00 +29°C° 0 mm 4 mps 734 mmHg 50%
    20:00 +27°C° 0 mm 4 mps 735 mmHg 55%
    21:00 +26°C° 0 mm 4 mps 735 mmHg 60%
    22:00 +26°C° 0 mm 4 mps 735 mmHg 62%
    23:00 +25°C° 0 mm 4 mps 735 mmHg 64%

    27 February, Tuesday

    Time Temperature Precipitation Wind Pressure Humidity
    00:00 +25°C° 0 mm 4 mps 735 mmHg 65%
    01:00 +23°C° 0 mm 4 mps 735 mmHg 67%
    02:00 +24°C° 0 mm 3 mps 734 mmHg 69%
    03:00 +22°C° 0 mm 3 mps 734 mmHg 71%
    04:00 +22°C° 0 mm 3 mps 734 mmHg 72%
    05:00 +22°C° 0 mm 3 mps 735 mmHg 72%
    06:00 +22°C° 0 mm 3 mps 735 mmHg 73%
    07:00 +25°C° 0 mm 4 mps 736 mmHg 64%
    08:00 +27°C° 0 mm 4 mps 736 mmHg 54%
    09:00 +30°C° 0 mm 5 mps 737 mmHg 44%
    10:00 +32°C° 0 mm 5 mps 736 mmHg 39%
    11:00 +34°C° 0 mm 5 mps 735 mmHg 33%
    12:00 +36°C° 0 mm 5 mps 735 mmHg 27%
    13:00 +36°C° 0 mm 5 mps 734 mmHg 25%
    14:00 +37°C° 0 mm 5 mps 733 mmHg 23%
    15:00 +37°C° 0 mm 5 mps 732 mmHg 21%
    16:00 +35°C° 0 mm 4 mps 732 mmHg 27%
    17:00 +33°C° 0 mm 4 mps 732 mmHg 33%
    18:00 +30°C° 0 mm 4 mps 733 mmHg 39%
    19:00 +29°C° 0 mm 4 mps 733 mmHg 45%
    20:00 +28°C° 0 mm 4 mps 734 mmHg 51%
    21:00 +27°C° 0 mm 4 mps 735 mmHg 57%
    22:00 +26°C° 0 mm 4 mps 734 mmHg 61%
    23:00 +25°C° 0 mm 4 mps 734 mmHg 64%

    28 February, Wednesday

    Time Temperature Precipitation Wind Pressure Humidity
    00:00 +25°C° 0 mm 4 mps 734 mmHg 68%
    01:00 +23°C° 0 mm 4 mps 734 mmHg 70%
    02:00 +24°C° 0 mm 3 mps 734 mmHg 72%
    03:00 +22°C° 0 mm 3 mps 733 mmHg 73%
    04:00 +22°C° 0 mm 3 mps 733 mmHg 75%
    05:00 +22°C° 0 mm 3 mps 734 mmHg 76%
    06:00 +21°C° 0 mm 3 mps 734 mmHg 77%
    07:00 +25°C° 0 mm 3 mps 734 mmHg 66%
    08:00 +27°C° 0 mm 4 mps 735 mmHg 55%
    09:00 +29°C° 0 mm 4 mps 735 mmHg 45%
    10:00 +32°C° 0 mm 4 mps 735 mmHg 39%
    11:00 +34°C° 0 mm 4 mps 734 mmHg 34%
    12:00 +36°C° 0 mm 4 mps 734 mmHg 29%
    13:00 +36°C° 0 mm 4 mps 733 mmHg 29%
    14:00 +36°C° 0 mm 5 mps 732 mmHg 29%
    15:00 +36°C° 0 mm 5 mps 731 mmHg 30%
    16:00 +35°C° 0 mm 4 mps 731 mmHg 35%
    17:00 +33°C° 0 mm 4 mps 732 mmHg 40%
    18:00 +30°C° 0 mm 4 mps 732 mmHg 45%
    19:00 +29°C° 0 mm 4 mps 733 mmHg 50%
    20:00 +28°C° 0 mm 4 mps 733 mmHg 54%
    21:00 +27°C° 0 mm 3 mps 734 mmHg 59%
    22:00 +26°C° 0 mm 3 mps 734 mmHg 62%
    23:00 +25°C° 0 mm 3 mps 734 mmHg 65%
    Show more